Hayward, CA

1:07 AM PDT on April 20, 2018 (GMT -0700)
Hayward Executive

Weather History for KHWD - November, 2012

Change the Weather History Date:

Friday, November 30, 2012

  Actual Average Record
Temperature  
Mean Temperature 60 °F 52 °F  
Max Temperature 63 °F 59 °F 67 °F (2008)
Min Temperature 57 °F 44 °F 35 °F (2015)
Degree Days  
Heating Degree Days 5    
Month to date heating degree days 226  
Since 1 July heating degree days 428  
Cooling Degree Days 0    
Month to date cooling degree days 7  
Year to date cooling degree days 191  
Growing Degree Days 10 (Base 50)    
Moisture  
Dew Point 57 °F    
Average Humidity 88    
Maximum Humidity 97    
Minimum Humidity 78    
Precipitation  
Precipitation 1.18 in - 1.18 in (2012)
Month to date precipitation 2.77  
Year to date precipitation 12.23  
Since 1 July precipitation 3.11  
Sea Level Pressure  
Sea Level Pressure 29.93 in    
Wind  
Wind Speed 11 mph (SSE)    
Max Wind Speed 23 mph    
Max Gust Speed 31 mph    
Visibility 6 miles    
Events Rain    
T = Trace of Precipitation, MM = Missing Value Source: NWS Daily Summary

Daily Weather History Graph

Daily Weather History Graph

Search for Another Location

Airport or City:

Astronomy

Nov. 30, 2012 Rise Set
Actual Time 7:04 AM PST 4:50 PM PST
Civil Twilight 6:35 AM PST 5:19 PM PST
Nautical Twilight 6:03 AM PST 5:51 PM PST
Astronomical Twilight 5:31 AM PST 6:23 PM PST
Moon 6:49 PM PST (11/30) 8:40 AM PST (11/30)
Length of Visible Light 10h 43m
Length of Day
9h 45m
Waning Gibbous, 96% of the Moon is Illuminated
Nov 30
Waning Gibbous
Dec 6
Last Quarter
Dec 13
New
Dec 19
First Quarter
Dec 28
Full

Hourly Weather History & Observations

Time (PST) Temp. Dew Point Humidity Pressure Visibility Wind Dir Wind Speed Gust Speed Precip Events Conditions
12:54 AM 61.0 °F 57.0 °F 87% 29.90 in 5.0 mi SSE 12.7 mph - 0.07 in Rain Rain
1:54 AM 61.0 °F 57.9 °F 90% 29.88 in 5.0 mi South 16.1 mph 23.0 mph 0.09 in Rain Rain
2:54 AM 61.0 °F 57.9 °F 90% 29.88 in 7.0 mi South 15.0 mph 24.2 mph 0.02 in Rain Light Rain
3:54 AM 61.0 °F 57.0 °F 87% 29.84 in 7.0 mi SSE 20.7 mph 27.6 mph 0.03 in Rain Light Rain
4:54 AM 61.0 °F 57.9 °F 90% 29.84 in 4.0 mi SSE 18.4 mph 25.3 mph 0.01 in Rain Rain
5:36 AM 60.8 °F 57.2 °F 88% 29.84 in 5.0 mi SSE 12.7 mph - 0.08 in Rain Rain
5:54 AM 60.1 °F 57.9 °F 93% 29.87 in 8.0 mi SE 10.4 mph - 0.08 in Rain Light Rain
6:50 AM 60.8 °F 57.2 °F 88% 29.84 in 4.0 mi SSE 11.5 mph - 0.09 in Rain Rain
6:54 AM 60.1 °F 57.9 °F 93% 29.88 in 3.0 mi SSE 10.4 mph - 0.11 in Rain Heavy Rain
7:54 AM 60.1 °F 57.9 °F 93% 29.88 in 2.0 mi SSE 10.4 mph - 0.34 in Rain Heavy Rain
8:01 AM 60.8 °F 57.2 °F 88% 29.85 in 1.2 mi SSE 8.1 mph - 0.03 in Rain Rain
8:07 AM 60.8 °F 57.2 °F 88% 29.85 in 3.0 mi SSE 12.7 mph - 0.03 in Rain Light Rain
8:27 AM 60.8 °F 57.2 °F 88% 29.86 in 2.5 mi South 8.1 mph - 0.07 in Rain Light Rain
8:47 AM 60.8 °F 57.2 °F 88% 29.87 in 2.5 mi South 8.1 mph - 0.16 in Rain Rain
8:54 AM 60.1 °F 57.9 °F 93% 29.90 in 2.5 mi South 8.1 mph - 0.18 in Rain Heavy Rain
9:03 AM 60.8 °F 57.2 °F 88% 29.87 in 3.0 mi South 8.1 mph - 0.02 in Rain Rain
9:24 AM 60.8 °F 57.2 °F 88% 29.88 in 1.8 mi South 4.6 mph - 0.08 in Rain Heavy Rain
9:35 AM 60.8 °F 57.2 °F 88% 29.89 in 3.0 mi South 5.8 mph - 0.09 in Rain Rain
9:48 AM 60.8 °F 59.0 °F 94% 29.89 in 2.5 mi South 3.5 mph - 0.12 in Rain Rain
9:54 AM 60.1 °F 59.0 °F 96% 29.92 in 1.8 mi SSE 3.5 mph - 0.13 in Rain Rain
9:57 AM 60.8 °F 57.2 °F 88% 29.89 in 2.0 mi SSE 3.5 mph - 0.00 in Rain Rain
10:14 AM 60.8 °F 57.2 °F 88% 29.90 in 2.0 mi SSE 4.6 mph - 0.02 in Rain Rain
10:54 AM 60.1 °F 57.9 °F 93% 29.93 in 6.0 mi South 6.9 mph - 0.06 in Rain Light Rain
11:54 AM 60.1 °F 57.9 °F 93% 29.91 in 6.0 mi SSE 10.4 mph - 0.05 in Rain Light Rain
12:05 PM 60.8 °F 57.2 °F 88% 29.89 in 8.0 mi South 11.5 mph - 0.00 in Rain Light Rain
12:54 PM 61.0 °F 55.9 °F 83% 29.93 in 10.0 mi South 11.5 mph 20.7 mph 0.02 in   Overcast
1:54 PM 62.1 °F 57.0 °F 84% 29.93 in 10.0 mi South 10.4 mph - N/A   Overcast
2:54 PM 63.0 °F 55.0 °F 75% 29.92 in 10.0 mi SSW 11.5 mph - N/A   Overcast
3:54 PM 62.1 °F 55.0 °F 78% 29.96 in 10.0 mi SSW 9.2 mph - N/A   Overcast
4:02 PM 62.6 °F 55.4 °F 77% 29.94 in 10.0 mi SSW 9.2 mph - N/A   Overcast
5:08 PM 60.8 °F 55.4 °F 82% 29.96 in 10.0 mi South 5.8 mph - N/A   Overcast
5:54 PM 60.1 °F 55.0 °F 83% 30.00 in 10.0 mi South 8.1 mph - N/A   Overcast
6:40 PM 60.8 °F 55.4 °F 82% 29.99 in 10.0 mi South 9.2 mph - 0.00 in   Overcast
6:54 PM 59.0 °F 57.0 °F 93% 30.02 in 6.0 mi SSE 8.1 mph - 0.00 in Rain Light Rain
7:18 PM 59.0 °F 55.4 °F 88% 29.99 in 9.0 mi SSE 9.2 mph - 0.00 in Rain Light Rain
7:44 PM 59.0 °F 57.2 °F 94% 29.99 in 10.0 mi SSE 8.1 mph - 0.00 in   Overcast
8:12 PM 59.0 °F 55.4 °F 88% 30.00 in 10.0 mi SSE 6.9 mph - N/A   Overcast
8:54 PM 59.0 °F 55.0 °F 87% 30.04 in 10.0 mi SSE 9.2 mph - N/A   Overcast
9:25 PM 59.0 °F 55.4 °F 88% 30.02 in 4.0 mi South 8.1 mph - 0.00 in Rain Light Rain
9:54 PM 57.9 °F 55.0 °F 90% 30.05 in 3.0 mi SSE 9.2 mph - 0.00 in Rain Light Rain
10:13 PM 57.2 °F 55.4 °F 94% 30.02 in 10.0 mi SSE 6.9 mph - 0.00 in   Overcast
10:54 PM 57.9 °F 54.0 °F 87% 30.04 in 10.0 mi SSE 9.2 mph - 0.00 in   Clear
11:54 PM 57.9 °F 53.1 °F 84% 30.05 in 10.0 mi SSE 9.2 mph - N/A   Mostly Cloudy